RH
55 53 50 50 50 50 51 52 52 52 51 49 47 45 42 40 38 36 34 32 30 28 27 26 25 24 23 22 21 21 20 19 18 18 17 16 16 15 14 14 13 12 11 10 10 9 8 8 7 6 6 6 5 5 4 4 4 4 4 4 4 4 3 3 3 3 3 3 3 3 3 3 3 3 3 3 3 3 3 3 3 3 4 4 4 4
54 52 50 50 51 52 53 53 52 51 49 46 44 42 39 37 34 32 31 29 28 27 26 25 24 23 23 22 21 20 19 18 18 17 16 15 14 14 13 12 11 10 9 8 8 7 6 6 5 5 4 4 4 4 4 4 4 4 4 4 4 4 4 4 4 4 4 4 4 4 4 4 4 4 4 4 4 4 4 4 5 5 5 5 5 6
54 52 52 52 53 54 55 53 51 48 45 42 40 38 35 34 32 30 29 28 27 26 26 24 24 23 22 21 20 19 18 18 16 16 14 14 12 12 10 10 8 8 7 6 6 5 5 4 4 4 4 4 4 4 4 4 4 4 4 4 4 4 4 4 4 4 4 4 4 4 4 4 4 4 5 5 6 6 6 7 7 7 8 8 8 8
54 54 54 55 56 55 54 51 48 44 42 39 36 34 32 31 30 29 28 28 27 26 26 24 24 23 22 20 19 18 17 16 15 14 12 11 10 9 8 7 6 6 5 5 4 4 4 4 4 4 4 4 4 4 4 4 4 4 4 4 5 5 5 5 5 5 5 5 5 5 5 5 6 6 6 7 8 9 10 10 10 10 10 11 11 12
55 56 57 57 56 54 50 47 43 40 38 36 34 32 31 30 29 29 28 28 27 26 25 24 23 22 20 19 18 16 15 13 12 11 10 8 8 7 6 6 5 5 4 4 4 4 4 4 4 4 4 4 4 4 5 5 5 5 5 5 6 6 6 6 6 6 6 6 6 6 6 6 6 7 8 10 11 12 13 14 14 14 15 16 17 18
58 58 58 56 53 50 46 42 40 37 35 34 32 31 30 30 29 29 28 28 26 26 24 23 21 20 18 16 15 13 12 10 10 8 7 6 6 5 5 5 4 4 4 4 4 4 4 4 4 4 5 5 5 5 5 6 6 6 6 6 6 6 6 6 6 6 6 6 6 6 6 6 7 8 9 11 14 16 17 18 18 18 20 22 24 26
59 58 56 52 49 45 42 39 37 35 34 32 32 31 31 30 30 29 28 27 26 24 22 21 19 17 15 14 12 10 9 8 7 6 6 5 5 5 5 4 4 4 4 4 4 5 5 5 5 5 5 5 6 6 6 6 6 6 6 7 7 7 7 7 7 7 7 7 7 7 6 6 7 8 9 12 15 18 20 21 22 23 24 27 30 32
59 56 52 48 44 41 39 37 35 34 33 32 32 32 31 30 30 28 27 26 24 22 20 18 16 14 12 10 9 8 7 6 6 5 5 5 5 5 5 5 5 5 5 5 5 5 5 5 5 5 6 6 6 6 6 6 7 7 7 7 7 7 7 7 7 7 7 7 7 6 6 6 6 7 8 11 15 19 22 24 25 26 28 31 34 36
56 52 48 44 41 38 37 36 35 34 33 32 32 32 31 30 29 27 26 24 21 19 16 14 12 11 9 8 7 6 6 6 5 5 5 5 5 5 5 5 5 5 5 5 5 5 5 6 6 6 6 6 6 6 6 7 7 7 7 7 7 7 7 7 7 7 7 6 6 6 6 6 6 6 7 9 12 17 22 25 27 29 31 33 35 37
51 47 44 41 39 37 36 36 35 34 34 33 32 31 30 29 27 25 23 20 18 16 13 11 10 8 7 6 6 6 6 5 5 5 5 5 5 5 5 5 5 5 6 6 6 6 6 6 6 6 6 6 6 6 7 7 7 7 7 7 7 7 7 7 7 7 7 6 6 6 6 6 6 6 6 7 10 14 19 24 27 30 32 34 36 37
47 44 41 40 38 37 36 36 35 35 34 33 32 30 28 26 24 22 19 17 14 12 10 8 8 6 6 6 6 6 6 5 5 5 5 5 5 5 5 6 6 6 6 6 6 6 6 6 6 6 6 7 7 7 7 8 8 8 8 8 8 8 8 7 7 7 7 7 6 6 6 6 6 6 6 6 8 10 14 20 24 28 31 33 34 36
44 42 40 39 38 38 37 36 36 34 34 32 30 28 26 24 20 18 15 13 11 10 8 7 6 6 6 6 6 6 6 5 5 5 6 6 6 6 6 6 6 6 6 6 7 7 7 7 7 7 8 8 8 8 8 8 8 8 8 8 8 8 8 8 8 7 7 7 6 6 6 6 6 6 6 6 6 8 10 15 19 24 27 30 32 34
42 40 40 39 38 38 37 36 35 34 32 30 27 24 22 20 17 14 12 10 8 8 6 6 6 6 6 6 6 6 6 6 6 6 6 6 6 6 7 7 7 8 8 8 8 8 9 9 9 9 10 10 10 10 10 10 10 10 10 10 10 9 9 8 8 8 8 7 7 6 6 6 6 6 6 6 6 7 8 11 15 18 23 26 28 30
42 40 40 39 39 38 37 36 34 32 30 27 24 21 18 16 13 11 9 8 7 6 6 6 6 6 6 6 6 6 6 6 6 6 7 7 8 8 8 8 9 10 10 10 10 11 11 11 12 12 12 12 12 12 12 12 12 12 12 11 11 10 10 10 9 8 8 8 7 7 6 6 6 6 6 6 6 6 7 9 12 15 18 21 24 27
41 40 40 39 38 37 36 34 32 29 26 24 20 18 15 12 10 9 8 7 6 6 6 6 6 6 6 6 6 6 6 7 7 8 8 9 10 10 11 11 11 12 12 13 14 14 14 15 15 15 15 15 15 15 15 15 14 14 14 13 12 12 11 10 10 9 8 8 8 7 7 7 6 6 6 6 7 7 8 8 10 12 15 18 21 24
41 40 40 39 38 36 34 31 28 26 22 20 16 14 11 10 8 7 6 6 6 6 6 6 6 6 6 7 8 8 8 8 9 10 10 11 12 13 14 14 14 15 16 17 18 18 18 18 18 19 19 19 19 19 18 18 18 17 16 16 15 14 13 12 11 10 10 9 8 8 8 8 8 8 8 8 8 8 8 9 10 11 13 16 18 20
41 40 39 38 36 34 31 28 25 22 18 16 13 11 9 8 7 6 6 6 6 6 6 6 6 7 7 8 8 10 10 11 11 12 12 14 14 16 17 18 18 19 20 22 22 23 23 23 23 23 23 23 23 23 23 22 22 21 20 18 18 16 15 14 12 11 10 10 10 9 9 9 9 9 9 9 10 10 10 10 11 11 12 14 16 18
41 40 38 35 33 30 27 24 21 18 15 12 10 9 8 7 6 6 6 6 6 6 6 7 7 8 8 9 10 11 12 13 14 14 15 16 18 19 21 22 23 24 26 27 28 28 28 28 28 28 28 28 28 28 27 27 26 25 24 22 20 18 17 15 14 13 12 11 10 10 10 10 10 10 11 11 12 12 12 12 12 12 12 13 14 16
40 38 35 32 30 27 24 20 17 14 12 10 8 7 7 6 6 6 6 6 6 7 7 8 8 9 10 11 12 13 15 16 16 16 18 19 20 23 25 26 28 29 31 32 32 32 32 32 32 32 32 32 32 32 32 32 31 29 27 26 23 21 19 18 16 14 13 12 12 12 12 12 12 12 13 13 14 14 14 14 13 13 13 13 13 14
37 35 32 29 26 23 20 17 14 11 9 8 7 6 6 6 6 6 6 7 7 8 8 9 10 10 12 13 15 16 17 18 19 19 20 21 23 26 28 30 31 32 34 35 35 36 35 35 35 36 36 36 37 37 37 36 35 34 32 29 26 24 22 20 18 16 15 14 13 13 13 13 13 14 14 15 16 16 16 16 15 14 14 13 13 12
34 32 29 26 23 19 16 14 11 9 8 7 6 6 6 6 7 7 7 8 8 8 9 10 11 12 14 15 16 18 19 20 21 22 22 23 25 27 30 31 32 34 35 36 36 37 37 38 38 39 40 41 42 42 42 42 40 38 36 32 30 27 24 22 20 18 16 15 14 14 14 14 14 14 15 16 16 17 18 17 16 15 15 14 13 12
31 28 26 22 19 16 13 10 9 8 7 7 6 6 7 7 7 8 8 8 10 10 11 12 13 14 15 16 18 19 21 23 24 24 24 24 26 27 29 31 32 32 34 35 36 37 38 39 40 42 44 45 46 47 48 46 45 42 40 36 34 30 27 24 22 20 18 16 15 14 14 14 14 15 15 16 17 18 18 18 17 16 16 14 13 12
28 25 22 19 16 13 10 8 8 7 7 7 7 7 7 8 8 8 9 10 10 11 12 12 13 14 15 16 18 20 22 25 26 26 26 26 26 26 28 29 30 30 31 32 34 36 38 40 43 46 48 50 52 52 52 51 50 47 44 40 37 34 30 27 24 22 20 18 16 16 15 15 14 15 15 16 16 17 18 18 17 16 16 15 14 12
25 22 19 16 13 10 8 7 7 7 7 7 7 8 8 8 9 10 10 11 11 12 12 12 12 13 15 17 20 22 25 28 29 29 28 26 26 24 25 26 27 27 28 30 32 35 38 41 45 49 52 55 57 58 57 56 54 51 48 44 40 36 33 30 27 24 22 20 18 17 16 16 15 15 16 16 16 16 17 17 17 16 16 15 14 12
22 19 16 13 10 8 7 7 7 7 7 8 8 8 9 10 10 11 11 12 12 12 11 12 13 14 16 18 22 24 28 30 30 30 27 24 23 22 22 23 24 24 26 28 31 35 38 42 47 52 56 60 61 62 62 60 58 55 51 47 43 40 36 34 30 28 24 22 20 18 17 17 16 16 16 16 16 17 17 16 16 16 16 15 14 12
19 16 13 10 8 7 7 7 7 7 8 8 9 9 10 10 11 12 12 12 12 12 12 13 15 17 19 22 24 26 28 29 28 27 24 21 19 18 19 21 23 24 26 28 32 36 39 44 49 54 59 62 64 66 65 64 62 59 55 51 47 43 40 36 34 30 27 24 22 20 19 18 18 18 18 18 18 18 18 17 17 16 16 15 14 12
16 13 10 8 7 7 7 7 8 8 8 9 10 10 11 11 12 12 12 12 12 12 14 16 18 20 22 24 25 26 26 26 24 22 19 17 17 18 19 22 24 26 28 30 34 37 41 46 50 56 60 64 66 67 67 66 65 62 59 55 51 47 44 40 37 33 30 26 24 22 20 20 20 20 20 20 20 19 18 18 18 16 16 15 14 13
13 10 8 7 7 7 7 8 8 9 10 10 11 11 12 12 12 12 12 12 12 14 16 19 21 22 23 23 23 22 22 21 19 18 16 16 16 18 21 24 26 28 30 32 35 38 42 47 52 56 60 64 66 68 68 68 67 65 62 59 56 52 48 44 40 36 32 29 26 23 22 21 21 21 22 22 21 20 20 19 18 17 16 15 14 13
10 8 7 7 7 7 8 8 9 10 11 11 12 12 13 13 13 12 12 13 14 17 20 22 23 23 22 20 19 18 18 17 16 15 15 16 18 20 22 26 28 30 32 34 35 37 42 47 52 56 58 61 64 66 68 68 68 67 65 62 60 56 53 49 44 40 35 31 28 25 24 23 23 23 24 23 22 22 20 19 18 17 16 15 14 14
8 7 6 7 7 8 8 10 10 11 12 13 13 14 14 13 13 13 13 15 18 21 23 24 24 22 20 18 16 15 15 16 15 15 15 16 18 21 24 26 29 32 34 34 35 36 39 44 50 54 57 58 61 63 66 67 68 67 66 64 62 60 57 53 48 43 38 34 30 28 26 26 26 26 26 25 24 23 22 20 19 18 16 15 14 14
7 6 7 7 8 9 10 11 12 13 14 14 14 14 14 14 14 14 16 18 22 24 26 25 23 22 20 18 16 15 15 15 15 15 16 17 19 21 24 27 30 32 34 36 36 35 36 40 46 51 54 56 58 60 62 64 64 64 63 62 61 60 58 54 50 44 40 36 33 31 30 29 28 28 27 26 25 24 22 21 19 18 16 16 14 14
6 7 8 8 9 10 12 13 14 14 14 15 15 15 14 14 15 16 19 22 25 26 26 25 24 22 20 19 18 16 16 16 16 16 16 17 19 21 24 27 29 32 34 36 37 37 36 37 41 45 49 52 54 56 58 60 60 60 60 58 58 57 55 52 49 44 41 38 36 34 33 32 31 30 29 27 26 24 22 21 19 18 16 16 14 13
6 8 8 10 11 12 14 14 15 15 15 15 15 15 14 15 16 19 23 26 27 28 26 26 25 24 23 22 20 19 18 18 18 18 18 18 19 21 24 26 28 31 32 34 36 37 37 37 38 41 44 47 49 52 54 55 55 56 55 55 54 53 52 50 47 44 42 40 38 37 36 35 34 32 30 28 26 24 22 21 19 18 17 16 14 13
8 8 10 11 12 14 15 15 15 15 16 16 15 15 15 16 18 22 26 28 29 28 28 28 28 27 26 24 23 22 21 21 20 20 20 20 21 22 23 26 28 30 31 32 34 35 36 37 38 38 40 42 44 47 49 50 50 51 51 51 50 49 48 47 45 44 42 41 40 40 39 37 35 33 31 28 26 24 22 20 19 18 17 16 14 13
8 10 11 13 14 15 16 16 16 16 16 16 15 15 15 18 21 26 29 30 30 30 30 31 31 31 30 28 27 26 25 24 24 24 24 24 24 24 24 26 27 28 29 30 30 32 32 34 35 36 36 37 40 42 45 46 47 47 48 48 47 46 46 45 44 43 42 42 42 41 40 38 35 33 30 28 25 23 21 20 18 18 17 16 14 12
10 11 13 15 16 16 16 16 16 16 16 16 15 15 16 20 24 28 31 32 32 32 33 34 34 34 34 32 31 30 29 29 29 28 28 28 28 27 27 28 29 29 29 29 29 29 29 30 31 32 32 33 34 36 39 41 43 44 44 44 44 44 43 43 42 41 40 40 39 38 37 35 33 31 28 26 24 22 20 19 18 18 17 16 14 12
12 13 15 16 16 16 16 16 16 16 16 16 15 16 18 23 27 31 33 33 34 34 36 37 38 38 38 36 35 34 34 33 33 33 32 32 32 32 32 32 33 33 33 32 32 32 32 32 32 32 32 32 32 33 34 36 38 39 40 40 40 40 40 38 37 36 35 34 34 33 32 30 29 27 26 24 22 21 20 19 18 18 17 16 14 12
14 15 17 17 16 16 16 16 16 16 16 16 16 17 20 25 29 32 34 35 36 37 38 40 42 42 42 42 40 39 38 38 37 37 37 38 38 38 38 38 39 40 40 41 42 42 42 42 42 41 40 41 41 41 41 40 40 39 39 39 39 39 39 38 36 34 34 32 31 30 30 29 28 26 25 24 23 22 22 21 20 19 18 16 14 12
16 17 18 17 16 16 16 17 17 17 16 16 16 19 22 27 31 34 36 37 38 39 41 43 45 46 47 47 46 44 43 42 42 42 42 42 42 43 44 44 46 47 49 50 52 53 54 54 55 55 56 56 57 58 58 57 56 54 52 53 54 54 53 52 50 47 44 43 42 40 38 36 34 32 30 29 28 27 26 25 24 22 18 16 13 12
18 18 18 16 16 16 17 18 18 17 16 16 18 20 24 29 33 36 38 39 40 42 44 46 48 50 51 51 50 49 48 46 46 46 46 47 47 48 49 50 51 53 56 58 60 61 62 62 63 64 65 66 67 68 68 68 66 65 64 65 66 67 67 66 63 60 58 56 54 53 50 48 45 42 40 38 38 37 36 34 30 26 22 18 15 13
19 18 18 17 16 17 18 18 18 17 16 16 18 21 26 30 34 38 40 42 43 44 46 48 50 52 54 55 55 54 52 51 50 50 50 50 51 52 53 54 55 57 59 61 63 64 65 65 66 66 68 69 70 71 72 72 70 68 66 67 68 69 70 69 66 64 63 62 61 60 58 56 55 54 53 52 51 50 47 44 40 35 30 26 24 24
19 18 18 17 18 18 18 18 18 18 16 17 19 22 27 32 36 40 42 44 46 47 48 50 52 55 57 59 59 59 57 55 54 52 52 53 54 55 56 56 58 58 60 61 62 64 64 65 66 66 68 70 72 73 74 74 74 72 70 69 68 69 70 70 67 66 66 65 65 65 65 65 66 66 66 65 63 60 56 53 50 47 43 40 40 40
19 18 18 18 18 18 19 19 19 18 17 18 20 23 28 33 37 40 44 45 47 48 50 52 54 56 59 61 63 63 62 60 57 56 54 54 55 56 57 58 58 59 60 60 61 61 62 62 63 64 66 68 71 72 73 74 75 74 74 72 71 71 72 71 69 67 66 66 66 67 68 70 71 72 72 70 68 66 64 62 60 57 54 52 50 49
19 18 18 18 18 19 20 20 20 19 18 18 20 24 29 34 38 42 45 47 48 50 51 53 55 58 60 62 63 64 65 63 61 59 58 57 57 57 58 59 60 60 60 60 60 59 59 60 60 60 62 65 68 70 72 73 74 74 75 74 73 73 73 72 71 70 70 69 69 69 70 71 72 73 73 72 70 68 66 65 62 60 56 52 50 47
19 18 18 18 19 20 20 21 20 20 19 19 21 24 30 35 40 43 46 48 49 50 52 54 56 58 59 60 62 63 65 65 65 64 62 61 60 60 60 60 61 61 61 60 60 58 57 56 56 56 57 60 64 67 69 70 72 73 74 75 74 74 73 72 71 71 71 72 72 71 70 70 70 71 71 70 68 65 62 59 56 53 50 46 44 42
19 18 18 19 20 20 21 22 22 21 20 20 21 25 30 36 40 44 48 49 50 52 53 55 56 57 58 58 59 60 62 65 66 68 68 67 66 65 64 64 64 64 64 63 62 60 58 55 53 52 52 55 58 62 66 68 69 71 73 74 74 74 74 72 70 70 70 70 71 70 68 67 66 65 65 64 61 58 54 50 47 45 42 40 39 38
19 19 19 20 20 21 22 23 23 22 21 20 22 24 30 36 41 45 49 50 52 53 54 55 56 57 57 57 57 58 60 62 65 68 71 72 72 70 69 68 68 68 66 66 65 64 62 58 55 51 50 50 53 57 62 65 67 68 69 70 71 72 72 71 68 66 64 64 63 62 61 60 58 57 57 56 54 51 47 44 42 40 39 39 38 39
19 20 20 20 20 22 23 24 24 24 23 22 22 24 29 35 40 46 50 52 53 54 54 56 56 57 57 57 56 57 58 60 63 66 69 72 74 74 74 73 73 72 71 70 68 68 67 65 62 57 53 51 51 53 57 62 66 68 68 67 67 68 68 68 66 62 60 57 55 53 52 50 50 50 50 50 50 48 45 42 41 40 40 40 40 41
20 20 20 20 21 22 24 25 26 26 24 23 22 24 27 34 40 45 50 52 54 54 55 55 56 56 57 57 57 58 58 60 62 64 66 68 71 73 74 75 75 75 75 74 73 72 71 70 68 65 61 56 53 52 53 57 62 66 69 68 68 68 68 68 66 64 61 58 54 51 48 46 45 44 44 46 46 46 45 42 41 40 40 41 42 43
20 20 20 20 21 22 24 26 27 27 26 24 23 24 26 32 38 44 49 52 54 56 56 56 56 56 57 58 58 59 59 60 61 62 64 65 66 68 70 72 73 74 75 76 76 76 76 74 73 70 68 62 58 56 54 54 57 61 66 69 70 69 68 68 68 66 65 62 60 56 53 50 47 45 45 46 46 47 47 46 44 43 42 42 43 44
21 21 21 21 22 23 24 26 28 28 28 26 24 24 24 29 35 42 48 52 55 57 57 57 57 58 58 59 60 60 60 60 60 61 62 62 64 65 66 67 68 69 71 73 75 76 76 76 76 74 71 66 63 61 58 56 55 56 60 65 68 70 69 69 69 68 68 66 65 62 60 56 52 50 49 49 50 51 52 52 51 49 47 46 46 45
Wind_Speed
66 66 67 67 68 68 69 69 69 69 70 70 70 71 71 71 71 72 72 72 73 73 74 75 76 76 77 78 79 80 81 82 82 83 84 85 86 86 87 88 89 89 90 91 92 92 93 94 94 95 95 96 96 97 97 97 97 97 97 97 97 97 96 96 96 95 95 94 94 93 93 92 92 91 91 90 90 89 89 88 88 88 88 88 87 87
67 68 68 68 69 69 69 70 70 70 70 70 71 71 71 71 71 72 72 73 74 75 76 76 77 78 79 80 81 82 83 84 84 85 86 87 88 89 89 90 91 92 92 93 94 94 95 95 95 96 96 96 96 96 95 95 95 94 94 93 93 92 92 91 90 90 89 88 88 87 86 85 85 84 83 83 82 82 81 81 81 80 80 80 80 79
68 69 69 69 69 69 69 70 70 70 70 71 71 71 71 72 72 72 73 74 75 76 77 78 79 80 81 82 83 84 84 85 86 87 88 89 90 91 92 92 93 94 94 94 95 95 95 95 95 94 94 93 93 92 92 91 90 89 89 88 87 86 85 84 84 83 82 81 80 79 79 78 77 76 75 75 74 74 73 73 73 72 72 72 71 71
69 69 70 70 70 70 70 70 70 70 71 71 71 72 72 72 73 73 74 75 76 77 78 79 80 81 82 83 84 85 86 87 88 89 90 91 92 93 93 94 94 94 95 94 94 94 94 93 92 92 91 90 89 88 87 86 84 83 82 81 80 79 79 78 77 76 75 74 73 72 71 70 69 69 68 67 66 66 66 65 65 65 64 64 63 63
70 70 70 70 70 70 70 70 70 71 71 72 72 72 73 73 74 74 75 76 77 78 79 80 81 82 84 85 86 87 88 89 90 91 92 93 93 94 94 94 94 94 94 93 92 92 91 90 89 88 87 85 84 83 82 80 79 78 77 75 74 73 72 72 71 70 69 68 67 66 65 64 63 62 62 61 60 60 59 59 59 58 58 57 56 56
70 70 70 70 70 70 70 70 71 71 72 72 73 73 74 74 75 76 76 77 78 79 80 81 83 84 85 87 88 89 90 91 92 92 93 93 93 93 93 93 93 92 91 90 89 88 87 86 85 83 82 81 79 78 76 75 74 73 72 71 70 69 68 68 67 66 65 64 63 63 62 61 60 59 58 57 56 56 55 55 54 53 53 52 52 51
71 71 70 70 70 70 70 71 72 72 73 73 74 74 75 75 76 77 78 79 79 81 82 83 84 86 87 89 90 91 91 92 92 92 92 92 92 92 91 91 90 89 88 86 85 84 83 81 80 79 77 76 75 73 72 71 70 69 69 68 67 67 66 65 65 64 63 63 62 61 60 59 58 57 56 56 55 54 53 53 52 51 51 50 50 49
71 70 70 70 70 71 71 72 73 73 74 74 75 75 76 76 77 78 79 80 81 82 83 84 86 87 89 90 90 91 91 91 91 91 90 90 89 89 88 87 86 84 83 82 80 79 78 77 75 74 73 72 71 70 69 69 68 68 67 67 66 66 65 64 64 63 63 62 61 60 60 59 58 57 56 55 55 54 53 52 51 51 50 50 50 49
70 70 70 70 70 71 72 73 74 74 75 75 76 76 77 77 78 79 79 81 82 83 84 86 87 88 89 90 90 90 90 89 89 88 87 86 85 84 83 82 81 79 78 77 75 74 74 73 72 71 70 70 69 69 68 68 68 67 67 66 66 65 65 64 63 63 62 61 61 60 59 59 58 57 57 56 55 54 53 53 52 51 51 50 50 50
70 70 70 71 71 72 72 73 74 75 76 76 77 77 78 78 79 79 80 82 83 84 86 87 87 88 89 89 89 88 87 87 86 85 83 82 81 80 78 77 75 74 73 72 72 71 71 71 70 70 69 69 69 68 68 68 67 67 67 66 66 65 64 64 63 62 62 61 60 60 59 58 58 57 57 56 56 55 54 53 53 52 51 51 51 50
70 70 71 71 72 73 73 74 75 76 76 77 78 78 79 79 80 80 81 83 84 85 86 87 87 86 86 86 86 85 84 82 82 81 79 77 76 75 73 72 71 70 70 70 70 70 70 70 70 69 69 69 69 68 68 68 67 67 66 66 65 65 64 63 62 62 61 60 60 59 58 58 57 57 57 56 56 56 55 54 54 53 52 52 51 51
70 71 71 72 73 74 74 75 76 76 77 78 78 79 80 80 81 82 83 84 85 85 85 86 85 85 83 82 82 82 80 78 77 75 74 73 72 71 70 69 69 69 69 69 69 70 70 70 69 69 69 68 68 68 67 67 67 66 66 65 64 64 63 62 62 61 60 59 59 58 57 57 56 56 56 56 56 56 56 55 54 53 53 52 51 51
71 72 72 73 74 74 75 76 76 77 77 78 78 79 80 81 82 83 84 85 85 85 84 83 83 82 81 79 78 77 76 74 73 71 70 69 68 68 67 67 68 68 68 68 69 69 69 69 69 68 68 67 67 67 66 66 65 65 64 64 63 62 62 61 60 60 59 58 58 57 56 56 55 55 55 55 55 56 55 55 54 54 53 52 51 51
72 72 73 74 75 75 76 76 77 77 78 78 79 80 81 82 83 84 84 84 84 83 82 80 79 78 77 76 74 73 72 70 69 68 67 66 66 66 66 67 67 68 67 67 68 68 68 67 67 67 67 66 66 66 65 65 64 63 63 62 61 61 60 59 58 58 57 57 56 56 55 55 54 54 54 54 54 54 54 54 54 53 52 52 51 50
72 73 74 75 75 76 76 77 77 78 78 79 80 81 82 83 84 84 83 83 82 81 79 78 76 75 73 71 70 69 68 68 67 66 65 65 66 67 67 67 67 68 67 67 67 67 67 66 65 65 65 64 64 64 64 63 62 62 61 61 60 59 58 57 57 56 55 55 54 54 53 53 53 52 52 52 53 53 53 53 53 52 51 51 50 50
73 74 75 75 76 76 77 77 77 78 79 80 81 82 83 83 83 83 81 80 79 78 76 74 72 70 69 68 67 65 65 66 66 65 65 65 66 67 67 67 67 67 67 66 66 66 65 65 64 64 63 63 63 63 62 62 61 60 60 59 58 57 56 55 55 54 53 53 52 52 52 51 51 51 51 51 51 51 51 51 51 50 50 50 49 49
74 75 75 76 76 76 77 77 78 79 80 81 82 82 82 82 81 80 79 77 76 74 72 70 67 65 64 65 65 65 65 65 66 66 65 65 66 67 67 67 67 67 66 65 65 64 64 63 63 63 62 62 62 62 61 61 60 59 58 57 56 55 55 53 53 52 51 51 50 50 50 50 49 49 49 49 49 49 49 49 49 48 48 48 48 48
74 75 76 76 76 76 77 78 79 80 81 81 82 82 81 80 79 77 75 73 71 70 68 66 64 62 60 61 63 66 66 66 66 67 66 66 67 67 67 67 67 66 65 65 64 64 63 63 62 62 61 61 61 61 60 59 59 58 57 56 55 54 53 52 51 50 49 49 49 48 48 48 48 48 47 47 47 47 47 46 46 46 46 46 47 47
75 75 76 76 76 77 77 78 79 80 81 81 81 80 79 77 75 73 71 69 67 65 64 62 61 61 60 61 63 66 67 67 67 68 67 67 67 67 67 67 67 66 65 65 64 64 63 62 62 61 61 60 60 60 59 58 58 57 56 55 54 53 52 50 50 49 48 48 47 47 47 47 46 46 46 46 45 45 45 44 44 44 44 45 45 46
75 76 76 76 76 77 78 79 80 81 81 80 79 77 75 73 71 69 67 65 64 62 61 60 60 60 61 62 64 66 68 69 69 69 69 68 68 68 68 67 67 66 65 65 64 63 63 62 61 60 60 59 59 59 58 58 57 56 55 54 53 52 51 50 49 48 47 46 46 46 46 45 45 45 45 44 44 43 43 43 42 42 43 43 44 45
75 76 76 76 77 77 79 80 80 80 79 78 76 74 71 69 67 65 63 61 60 60 59 59 60 61 63 64 66 68 69 70 70 70 70 69 69 68 69 68 67 66 65 65 64 63 61 60 59 59 58 58 58 57 57 56 56 55 54 53 52 51 50 49 48 47 47 46 45 45 44 44 44 44 43 43 42 42 41 41 41 41 41 42 43 44
75 75 76 77 77 78 79 79 80 79 77 74 72 69 67 65 62 61 60 59 58 58 59 60 61 63 64 66 67 69 71 71 71 72 72 71 70 69 69 68 67 66 64 63 62 61 59 58 57 56 56 56 56 56 56 55 55 54 53 52 52 51 50 49 48 47 46 45 45 44 43 43 42 42 42 41 41 40 40 40 39 39 40 41 42 43
75 75 76 77 78 79 79 78 77 75 73 70 67 64 62 60 58 57 57 57 57 58 60 61 63 65 66 67 69 70 71 72 72 73 72 71 70 69 68 67 66 64 62 60 59 57 56 54 54 53 53 53 54 54 54 53 53 52 52 51 51 50 49 49 48 47 46 45 44 44 43 42 41 41 40 39 39 38 38 38 38 38 39 40 41 43
75 75 76 78 78 79 78 76 74 71 68 65 63 60 58 56 55 55 55 56 58 60 61 63 65 66 68 69 69 70 71 72 72 72 72 70 69 67 66 64 63 61 59 57 55 53 52 50 50 50 50 50 51 51 51 51 51 51 50 50 50 49 48 48 47 46 46 45 44 43 43 42 41 40 39 38 37 37 36 36 36 37 37 39 40 42
75 76 77 78 78 77 75 72 69 66 63 60 58 56 55 53 53 54 56 58 60 62 64 65 66 67 68 69 69 69 70 70 70 70 69 68 66 64 62 60 59 57 55 52 50 49 48 46 46 46 46 47 48 48 48 48 49 48 48 48 48 48 47 47 47 46 45 45 44 43 42 41 40 39 38 37 36 35 34 34 35 35 36 38 39 41
76 77 78 78 77 74 71 68 64 61 59 56 54 52 52 52 53 55 58 60 62 64 65 66 67 67 67 67 67 67 67 67 67 67 66 65 63 60 58 56 54 53 51 48 46 44 43 42 42 42 42 43 44 44 45 45 46 46 46 46 46 46 46 46 46 45 45 44 43 43 42 41 40 38 37 36 35 34 33 33 33 34 35 37 39 41
77 77 77 76 73 70 66 63 59 57 54 52 51 50 51 52 54 56 59 61 63 64 65 66 66 66 66 65 64 64 64 64 64 63 62 61 58 56 54 52 50 49 47 44 42 40 39 38 38 38 38 39 40 41 41 42 43 43 44 44 45 45 45 45 45 44 44 44 43 42 41 40 39 38 37 36 34 33 32 32 32 33 34 36 38 40
77 77 76 73 69 65 61 58 55 52 51 50 49 50 51 53 55 58 60 62 63 64 65 65 64 64 63 62 61 60 60 60 60 59 58 57 54 52 50 48 46 45 43 41 38 36 35 34 34 34 35 36 36 37 38 39 40 41 42 42 43 43 43 44 44 44 43 43 42 42 41 40 39 38 37 36 34 33 32 31 31 32 33 35 37 39
77 75 72 69 64 60 56 53 51 49 48 48 49 51 53 55 57 59 61 62 63 63 63 63 62 61 60 59 58 56 56 56 56 56 55 53 50 48 46 44 43 41 39 37 34 32 30 30 31 31 32 32 33 34 35 36 38 39 40 40 41 42 42 43 43 43 43 43 42 42 41 40 39 38 37 36 34 33 31 30 30 31 32 33 35 37
75 72 68 63 59 55 51 48 46 45 46 47 49 52 54 56 58 59 61 61 61 61 60 60 59 58 57 56 55 54 53 53 53 53 52 50 47 45 43 41 39 38 36 35 32 28 25 25 26 28 29 30 30 32 33 34 36 37 38 39 40 41 42 42 43 43 43 42 42 42 41 40 40 39 38 36 35 33 31 30 30 30 31 32 34 36
71 67 62 57 53 49 46 44 43 44 46 48 50 52 55 57 58 59 60 59 59 58 57 57 56 55 55 54 53 52 51 51 51 50 49 47 45 42 40 38 36 35 34 33 31 27 23 21 22 24 26 27 28 30 31 33 35 36 37 38 39 40 41 42 43 43 43 42 42 41 41 41 40 39 38 37 35 33 31 30 29 29 30 31 33 35
66 61 56 51 47 44 42 41 42 44 46 48 51 53 55 56 57 58 58 57 56 55 55 54 53 53 52 51 51 50 50 49 49 48 47 45 43 40 38 36 34 32 31 30 30 28 24 21 20 21 23 25 26 27 29 31 33 35 36 37 38 39 40 42 42 43 42 42 41 41 41 41 40 39 38 37 35 33 31 29 28 28 29 31 32 33
60 54 49 45 42 40 39 40 42 44 46 49 51 53 54 56 56 56 55 54 53 53 52 51 51 50 50 49 49 49 48 48 47 47 45 44 41 39 36 34 32 31 29 28 28 26 25 22 21 20 21 22 24 26 28 30 32 33 35 36 37 38 40 41 41 42 41 41 41 41 40 40 40 39 38 36 35 32 30 29 28 28 28 30 31 32
53 48 43 40 38 38 39 40 42 44 47 49 51 52 54 54 54 54 53 52 51 50 50 49 49 49 48 48 48 47 47 47 47 46 44 43 40 38 35 33 31 30 28 27 26 25 24 23 22 21 21 21 22 24 27 29 30 32 34 35 37 38 39 40 40 40 40 40 40 40 40 40 39 39 38 36 34 31 29 28 27 27 27 29 30 31
46 41 38 36 36 37 39 41 43 45 47 49 50 52 53 53 52 51 50 49 49 48 48 48 47 47 47 47 47 46 46 45 45 45 44 42 40 37 34 32 31 29 28 26 25 24 23 22 22 22 21 21 22 24 26 28 30 32 33 35 36 37 38 39 39 39 39 39 39 39 39 39 38 38 36 35 33 30 28 26 26 26 27 28 29 30
39 36 35 34 35 37 39 41 43 45 46 48 50 51 51 51 50 49 48 47 47 47 47 46 46 46 46 46 46 45 45 44 44 43 42 41 39 37 34 32 31 30 28 26 25 24 23 22 22 22 22 22 22 23 25 27 29 31 33 34 35 36 37 38 38 38 38 37 37 37 37 37 37 36 35 33 31 29 27 25 24 25 26 27 27 28
34 32 33 33 35 37 39 41 42 44 46 48 49 50 49 49 48 47 46 46 45 45 45 45 45 45 45 45 45 44 44 43 43 42 41 40 38 36 34 32 31 30 29 28 26 25 24 22 21 21 21 21 22 22 23 25 27 29 31 32 33 34 35 36 36 37 36 36 35 35 35 35 34 34 32 31 29 27 25 24 23 24 24 25 26 26
30 31 32 33 35 36 38 40 42 44 46 47 48 48 48 47 46 45 45 44 44 44 44 44 44 44 44 44 43 43 43 42 42 41 40 39 37 36 34 32 31 30 30 29 28 27 25 24 23 21 20 20 20 21 22 23 25 26 28 29 30 31 32 33 34 34 34 34 33 32 32 32 31 30 29 28 26 24 23 22 22 22 23 24 24 24
28 30 32 33 35 36 38 40 42 44 45 46 47 47 46 45 44 43 43 43 43 43 43 43 43 43 42 42 42 42 41 41 41 40 39 38 37 36 35 33 32 31 30 29 29 28 27 26 25 23 22 20 19 20 21 22 23 24 25 25 26 28 29 31 32 32 31 31 30 29 28 28 27 26 25 23 22 21 20 20 20 21 21 21 21 21
28 30 32 33 35 36 38 40 41 43 45 45 46 45 44 43 42 42 42 42 42 42 42 42 41 41 41 41 41 40 40 40 40 40 39 38 37 36 35 34 33 32 31 30 30 29 29 28 26 25 23 22 20 20 20 21 22 23 23 23 23 24 26 28 29 29 29 28 27 25 24 23 22 21 20 18 18 18 18 18 18 19 19 19 19 19
28 30 31 33 34 36 38 39 41 43 44 44 44 43 42 42 41 41 41 41 41 41 40 40 40 39 39 39 39 39 40 40 39 39 38 38 37 36 35 35 34 33 32 31 31 30 30 29 28 26 25 23 22 20 20 21 22 23 23 23 22 23 24 26 27 27 26 25 23 22 20 18 17 16 15 14 14 15 15 16 16 16 16 16 16 17
28 30 31 33 34 36 37 39 41 42 43 43 43 42 41 40 40 39 39 39 39 39 39 39 38 38 38 38 38 38 38 38 38 38 38 37 37 36 36 35 34 33 33 32 31 31 30 29 28 27 25 24 22 21 20 20 21 22 23 23 23 23 23 24 25 26 25 23 21 19 17 16 14 13 12 12 12 13 13 14 14 14 14 14 14 15
28 30 31 32 34 35 37 39 40 41 42 42 42 41 40 39 39 38 38 38 38 38 38 37 37 36 36 36 35 36 36 37 37 37 36 36 36 35 35 35 34 34 33 32 32 31 30 29 28 27 25 24 22 21 20 19 20 21 22 23 23 22 22 23 24 24 24 23 21 19 17 15 13 12 11 11 11 11 12 12 12 12 12 12 13 13
28 29 31 32 33 35 37 38 40 41 42 42 41 41 40 39 38 37 37 37 36 36 36 36 36 35 35 34 33 33 33 34 35 35 35 35 35 34 34 34 34 34 33 33 32 31 30 29 28 27 25 24 23 21 20 19 19 19 20 21 22 22 22 22 22 22 22 22 21 19 17 15 13 11 10 10 10 10 10 10 10 11 11 11 12 13
28 29 31 32 33 35 36 38 39 40 41 41 41 40 39 38 37 37 36 36 35 35 35 35 35 34 34 33 32 31 31 31 32 33 34 34 34 34 33 33 33 33 33 32 32 31 30 29 28 26 24 23 23 22 21 20 19 18 19 20 20 21 21 21 21 21 21 20 19 18 16 14 12 10 9 9 9 9 9 9 10 10 10 11 12 12
28 29 30 31 33 34 36 37 38 40 40 40 40 40 39 38 37 36 36 35 35 34 34 34 34 34 33 32 31 30 29 29 29 30 31 32 33 33 33 32 32 32 32 32 32 31 31 30 29 27 25 23 22 22 22 22 20 19 19 19 19 19 20 20 20 19 19 18 17 16 14 12 10 9 8 8 8 9 9 9 10 10 11 11 12 13
27 29 30 31 33 34 35 37 38 39 39 40 40 39 39 38 37 36 35 34 34 34 34 34 33 33 33 32 31 30 29 28 28 28 29 30 30 31 31 31 31 31 31 31 31 31 31 31 30 29 27 25 24 23 23 23 22 21 20 20 19 19 19 19 19 19 18 17 16 15 13 11 10 8 7 8 8 9 9 10 11 11 12 12 13 13
27 28 30 31 32 34 35 36 37 38 39 39 39 39 38 38 37 35 34 34 33 33 33 33 33 33 32 32 31 30 29 28 27 27 28 28 29 29 29 30 29 29 29 29 29 30 30 31 31 31 30 28 26 25 24 24 23 23 22 21 21 20 20 20 20 19 18 17 16 15 13 12 10 9 8 8 9 10 11 12 12 13 13 14 14 15
27 28 30 31 32 34 35 36 37 37 38 39 39 39 38 38 36 35 34 34 33 33 32 32 32 32 32 31 31 30 29 29 28 28 28 28 28 28 28 28 27 27 27 27 27 27 28 29 30 32 32 31 30 28 26 24 23 23 22 22 21 20 20 20 20 20 19 19 18 17 15 14 13 11 10 10 11 12 13 14 15 15 16 16 17 17
27 28 30 31 32 33 34 35 36 37 37 38 38 38 38 37 36 35 34 33 33 32 32 32 32 31 31 31 31 30 30 29 29 29 29 29 28 28 27 27 26 25 25 24 24 24 24 24 26 29 31 33 32 31 28 26 24 22 21 21 20 20 20 19 19 20 20 20 20 19 19 17 16 15 14 13 13 14 15 16 17 18 19 19 19 19
27 29 30 31 32 33 34 35 36 36 37 37 38 38 38 37 36 35 34 33 32 32 32 31 31 31 31 31 31 31 30 30 30 30 30 30 29 29 28 27 26 24 23 22 21 21 21 21 21 23 27 30 32 33 32 29 27 24 22 21 20 20 19 19 19 19 20 21 21 21 21 21 20 19 18 17 16 16 17 18 19 20 21 21 20 20
Wind_Direction
299 299 299 299 299 298 298 298 298 297 297 297 297 297 297 297 297 297 296 296 296 296 295 295 295 295 295 295 294 294 294 294 294 294 294 294 293 293 293 293 292 292 292 292 291 291 290 290 289 289 288 288 287 287 286 285 285 284 284 283 283 282 282 281 281 280 279 279 278 278 277 277 276 276 275 275 274 274 273 273 272 271 271 270 270 269
299 299 299 299 298 298 298 298 298 297 297 297 297 297 297 297 297 297 297 297 297 296 296 296 296 296 296 296 296 296 296 296 295 295 295 295 295 294 294 294 294 293 293 292 292 291 291 290 290 289 289 288 288 287 286 286 285 285 284 284 283 282 282 281 281 280 280 279 278 278 277 277 276 276 275 275 274 273 273 272 271 271 270 269 269 268
299 299 299 299 299 298 298 298 298 298 298 298 297 298 298 298 297 297 297 297 297 297 297 297 297 297 297 297 297 297 297 297 297 296 296 296 296 295 295 295 294 294 294 293 293 292 292 291 290 290 289 289 288 288 287 286 286 285 285 284 283 283 282 281 281 280 280 279 278 278 277 277 276 275 275 274 273 273 272 271 270 270 269 268 267 267
299 299 299 299 299 299 298 298 298 298 298 298 298 298 298 298 298 298 298 298 298 298 298 298 298 298 298 298 298 298 298 298 297 297 297 297 296 296 296 295 295 295 294 294 293 293 292 292 291 291 290 290 289 288 288 287 287 286 285 285 284 283 283 282 281 280 280 279 278 278 277 276 276 275 274 273 272 271 271 270 269 268 267 266 265 265
299 299 299 299 299 299 299 299 298 298 298 298 299 299 299 299 299 299 299 299 299 299 299 299 299 299 299 299 299 299 298 298 298 298 298 297 297 297 296 296 296 295 295 295 294 294 293 292 292 291 291 290 290 289 289 288 287 287 286 285 284 284 283 282 282 281 280 279 279 278 277 276 275 274 273 272 271 270 269 268 267 266 265 264 264 263
299 299 299 299 299 299 299 299 299 299 299 299 299 299 299 299 299 300 300 300 300 300 300 300 300 300 300 300 299 299 299 299 299 299 298 298 298 297 297 297 296 296 296 295 295 294 293 293 292 292 291 291 290 290 289 288 287 287 286 285 285 284 283 282 282 281 280 279 279 278 277 276 275 274 273 271 270 269 268 267 266 265 264 263 263 263
299 299 299 299 299 299 299 299 299 299 299 300 300 300 300 300 300 301 301 301 301 301 301 301 301 301 301 300 300 300 300 300 299 299 299 299 298 298 298 297 297 296 296 295 295 294 294 293 293 292 292 291 290 290 289 288 287 287 286 285 284 284 283 282 282 281 280 279 278 277 276 275 274 273 271 270 269 268 267 266 265 264 263 262 262 263
299 299 299 300 300 300 300 300 300 300 300 300 300 301 301 301 301 301 301 302 302 302 302 302 302 302 301 301 301 300 300 300 300 300 299 299 299 298 298 298 297 297 296 296 295 295 294 294 293 293 292 291 291 290 289 288 287 287 286 285 284 283 283 282 281 281 280 279 278 277 276 274 273 271 270 269 268 267 265 264 263 263 262 262 263 263
299 300 300 300 300 300 300 300 300 300 301 301 301 301 302 302 302 302 302 302 302 303 303 303 302 302 302 301 301 301 301 301 300 300 299 299 299 298 298 298 297 297 296 296 295 295 294 294 293 293 292 292 291 290 289 288 287 286 286 285 284 283 283 282 281 280 280 279 278 276 275 274 272 270 269 267 266 265 264 263 262 262 262 262 262 263
300 300 300 300 301 301 301 301 301 301 301 302 302 302 302 302 303 303 303 303 303 303 303 303 303 303 302 302 301 301 301 301 300 300 300 299 299 298 298 298 297 297 297 296 296 295 295 294 294 293 293 292 291 290 289 288 287 287 286 285 284 283 283 282 281 280 279 278 277 276 275 273 271 269 268 266 265 264 263 262 262 261 261 261 262 263
300 300 301 301 301 301 301 301 302 302 302 302 303 303 303 303 304 304 304 304 304 304 304 304 303 303 302 302 302 301 301 301 300 300 300 299 299 299 298 298 298 297 297 297 296 296 295 295 294 294 293 292 291 291 290 289 288 287 286 285 285 284 283 282 281 280 279 278 277 276 274 273 271 269 267 265 264 263 262 261 261 261 261 261 261 262
301 301 301 301 301 302 302 302 302 302 303 303 303 304 304 304 305 305 305 305 305 304 304 304 304 303 303 302 301 301 301 301 300 300 300 300 299 299 299 299 298 298 298 297 297 296 296 296 295 295 294 293 292 291 290 290 289 288 287 286 285 284 283 283 282 281 280 279 277 276 275 273 271 269 267 265 263 262 261 261 260 260 260 260 260 261
301 301 302 302 302 302 302 302 303 303 303 304 304 305 305 305 305 305 305 305 305 305 305 304 304 304 303 302 301 301 301 300 300 300 300 300 299 299 299 299 299 298 298 298 298 297 297 297 296 296 295 294 293 292 291 290 289 288 287 286 286 285 284 283 282 281 280 279 278 276 275 273 271 269 267 265 263 262 261 260 260 259 259 259 259 260
302 302 302 302 302 303 303 303 304 304 304 305 305 306 306 306 306 306 306 306 306 305 305 305 304 304 303 302 301 301 301 301 300 300 300 300 300 299 299 299 299 298 298 298 298 298 297 297 297 296 296 295 294 293 292 291 290 289 288 287 286 285 284 283 282 281 280 279 278 277 275 273 271 269 267 265 263 262 261 260 259 259 259 259 258 258
302 302 303 303 303 303 304 304 304 305 305 306 306 307 307 307 307 306 306 306 306 306 305 305 304 304 303 302 301 301 301 301 301 301 301 300 300 300 300 299 299 299 299 298 298 298 297 297 297 297 296 295 294 293 292 291 290 289 288 287 286 285 284 284 283 282 281 280 278 277 275 274 272 270 268 266 264 262 261 260 259 259 258 258 257 257
303 303 303 303 304 304 304 305 306 306 307 307 307 307 307 307 307 307 307 306 306 305 305 304 304 304 303 302 302 301 301 301 301 301 301 301 300 300 300 299 299 299 299 298 298 298 298 297 297 297 296 295 294 293 291 290 289 288 287 287 286 285 285 284 283 283 282 281 279 278 276 275 273 270 268 266 264 263 262 260 259 259 258 257 256 255
303 303 304 304 304 305 305 306 307 307 307 308 308 308 308 308 307 307 307 306 306 305 305 304 304 303 303 302 302 301 301 301 301 301 301 301 300 300 299 299 299 298 298 298 298 298 297 297 297 296 295 294 293 292 291 289 288 288 287 286 286 285 285 285 284 284 283 282 281 279 278 276 274 272 269 267 265 264 262 261 260 258 257 256 255 254
304 304 304 305 305 306 307 307 308 308 308 308 308 308 308 308 308 307 307 306 306 305 305 304 304 303 303 302 302 301 301 301 301 301 301 301 300 300 299 299 299 298 298 298 298 297 297 296 296 295 294 293 292 290 289 288 287 287 286 286 285 285 285 285 285 284 284 283 282 281 279 277 275 273 271 269 267 265 263 261 260 258 257 256 255 253
304 305 305 306 306 307 308 308 308 309 309 309 308 308 308 308 307 307 306 306 305 305 305 305 305 304 304 303 302 302 302 302 301 301 301 300 300 299 299 298 298 298 298 298 297 296 296 295 294 293 292 291 290 288 287 286 286 285 285 284 284 284 285 285 285 285 284 284 283 282 280 279 277 275 272 270 268 266 264 262 260 258 257 256 254 253
305 306 306 307 307 308 309 309 309 309 309 309 309 308 308 308 307 307 306 306 305 305 305 305 305 305 305 304 303 303 302 302 302 301 301 300 300 299 299 298 298 298 298 297 296 296 295 294 293 292 290 289 288 287 285 285 284 283 283 283 283 283 284 284 284 284 284 284 283 283 281 280 278 276 274 272 270 268 266 263 261 259 257 256 254 252
306 306 307 308 308 309 309 309 309 309 309 309 309 308 308 307 307 306 306 306 306 306 306 306 306 306 305 305 304 303 303 302 302 301 301 301 300 300 299 299 298 298 298 297 296 295 294 293 292 290 288 287 286 285 284 283 283 282 282 282 282 282 283 283 283 283 284 284 283 283 282 281 279 278 276 274 272 270 267 265 262 259 257 256 254 253
307 307 308 309 309 310 310 310 310 309 309 309 308 308 307 307 307 306 306 306 306 306 307 307 307 307 306 306 305 304 304 303 303 302 302 302 301 301 300 300 300 299 298 297 296 295 293 292 290 289 287 286 284 284 283 282 281 281 281 281 281 281 281 282 282 283 283 283 283 283 283 282 281 279 277 276 274 271 269 266 263 260 257 256 254 253
308 308 309 309 310 310 310 310 310 309 309 308 308 307 307 307 307 307 307 307 307 307 308 308 308 307 307 307 306 306 305 305 304 304 304 303 303 303 302 302 301 300 299 298 296 295 293 291 289 288 286 285 284 283 282 281 281 280 280 280 280 280 280 281 281 282 282 283 283 283 283 282 282 280 279 277 275 273 270 267 263 260 257 255 254 253
308 309 309 310 310 310 310 310 309 309 308 307 307 307 307 307 307 307 307 308 308 308 309 309 309 309 308 308 308 308 307 307 306 306 305 305 305 305 304 304 303 301 300 299 297 295 293 291 289 287 285 284 283 282 282 281 281 280 280 280 279 279 280 280 280 281 282 282 283 283 283 283 282 281 280 278 276 274 271 267 263 260 257 255 254 252
309 309 310 310 311 311 310 309 309 308 307 307 306 306 307 307 308 309 309 310 310 310 311 311 311 310 310 310 310 309 309 308 307 307 306 306 307 307 306 305 304 303 301 300 298 296 293 291 289 287 285 284 283 282 282 281 281 280 280 279 279 279 279 279 280 280 281 282 282 283 283 283 283 282 281 279 277 275 271 268 264 260 257 254 253 252
309 310 310 311 311 310 310 309 308 307 306 306 306 306 307 308 309 310 311 311 312 312 313 313 313 312 312 312 311 311 310 309 308 307 307 308 309 309 309 308 306 305 303 301 299 297 294 292 289 287 285 284 283 283 282 282 281 281 280 280 279 279 279 279 280 280 280 281 282 283 283 283 283 283 282 280 278 275 272 268 264 260 256 254 252 251
309 310 311 311 310 310 309 307 307 306 306 306 306 308 309 310 311 312 313 313 314 314 314 314 314 314 314 313 313 312 311 310 309 309 309 310 311 312 312 310 309 307 305 303 301 299 296 293 290 288 286 284 284 283 283 283 282 281 281 280 280 280 280 280 280 280 280 281 282 282 283 284 284 284 283 281 279 276 273 269 264 260 256 253 252 251
310 310 311 310 310 308 307 306 305 305 306 307 308 310 311 313 314 314 315 315 315 316 316 316 316 315 315 315 315 314 313 312 311 311 313 313 315 315 315 313 312 310 308 306 304 301 298 295 292 289 287 285 284 284 284 283 283 282 282 282 282 281 281 281 281 280 281 281 282 283 283 284 285 285 284 283 281 278 274 270 265 260 256 253 252 250
310 310 310 309 308 307 306 305 305 306 307 309 311 313 314 315 316 316 316 317 317 317 317 317 317 317 317 317 317 316 316 314 314 315 316 317 318 319 319 317 316 314 312 309 306 304 300 297 294 291 288 286 285 285 284 284 284 283 283 283 283 283 282 282 282 281 282 282 283 283 284 285 285 285 285 284 282 280 276 271 266 261 257 254 252 251
310 310 309 308 307 306 305 305 306 308 309 311 313 315 316 317 318 318 318 318 318 318 319 319 319 319 319 320 320 320 319 318 318 319 320 321 323 324 323 322 320 319 317 314 311 308 304 300 296 293 291 289 287 286 285 284 284 283 283 283 283 283 283 283 282 282 283 283 284 284 285 286 286 286 286 285 284 281 278 273 268 263 258 255 253 251
310 309 308 306 305 305 305 306 308 310 312 314 315 317 318 319 319 319 319 319 320 320 320 321 321 322 322 323 323 323 323 322 323 324 325 326 327 328 328 326 325 323 321 319 317 314 310 304 299 296 293 291 289 287 285 284 283 283 283 283 283 283 283 282 283 283 283 284 284 285 286 286 287 287 287 286 285 282 279 275 270 264 260 256 253 252
309 307 306 305 304 304 305 307 310 312 314 315 317 318 319 320 320 320 320 320 321 322 322 323 323 324 325 326 327 327 327 327 327 329 329 330 331 332 332 330 329 327 326 324 322 320 317 311 304 299 295 293 290 288 286 284 283 283 282 282 282 282 282 282 282 283 284 284 285 286 286 287 287 287 287 287 285 283 280 276 271 266 261 257 254 252
307 305 304 303 303 305 307 309 311 313 315 317 318 320 320 320 320 321 321 321 322 323 324 325 326 327 328 329 330 331 331 331 332 333 333 334 335 336 336 334 333 331 329 327 325 323 320 316 310 303 298 295 292 289 286 285 283 283 282 282 281 281 281 282 282 283 284 285 286 286 287 287 287 287 287 287 286 284 281 277 273 268 263 258 255 252
304 303 302 302 303 305 308 310 312 314 316 318 319 320 321 321 321 321 321 322 323 324 325 326 327 329 330 331 333 334 334 334 335 335 336 337 338 339 340 338 336 334 331 329 327 324 321 317 312 306 300 296 293 290 288 286 284 283 283 282 282 282 282 283 283 284 285 286 286 287 287 287 287 287 287 287 286 284 282 278 274 269 263 258 254 251
301 300 300 301 304 306 309 311 313 316 317 319 320 320 321 321 321 321 322 323 324 324 326 327 329 330 331 333 334 335 336 336 337 337 339 340 341 342 343 342 339 337 334 331 328 325 321 317 313 308 302 297 293 290 289 287 286 285 284 284 284 284 284 285 285 285 286 286 286 286 286 286 286 287 287 286 286 284 282 279 274 269 263 258 254 251
299 298 300 302 305 307 310 312 314 316 318 319 320 321 321 321 321 322 322 323 324 325 326 327 329 330 332 333 334 336 337 337 338 338 340 341 343 344 345 345 343 340 337 335 332 329 324 320 316 311 306 301 296 292 290 288 287 286 286 286 286 286 287 287 287 287 286 286 286 286 286 286 286 286 286 286 286 285 283 279 273 268 262 257 253 250
296 298 300 303 306 308 311 313 315 317 319 320 321 321 321 321 321 322 322 323 323 325 326 327 329 330 331 332 334 335 336 337 338 339 340 342 344 345 346 347 346 344 341 340 338 335 332 328 324 319 314 309 304 299 294 291 289 288 288 288 289 289 289 288 288 288 287 287 287 286 286 286 286 286 287 287 287 286 283 278 272 265 260 256 253 250
296 298 301 304 307 310 312 314 316 318 320 321 321 322 322 322 322 322 322 323 324 325 326 328 329 330 330 331 332 333 335 336 337 338 340 342 343 345 346 347 347 346 344 342 341 340 338 336 334 330 325 320 315 310 304 298 294 292 292 292 292 292 291 291 290 290 289 289 289 288 288 288 287 288 288 288 287 285 281 275 269 263 258 254 252 249
297 300 303 306 309 311 313 316 317 319 321 321 322 322 322 322 322 322 322 323 324 325 326 328 329 329 330 330 331 332 333 334 335 337 338 340 342 343 344 345 346 346 345 343 342 341 340 339 338 336 333 330 325 319 313 307 303 300 299 298 297 296 295 295 294 294 294 294 294 293 292 291 291 290 289 288 286 282 277 271 265 260 256 253 249 246
299 302 305 308 310 313 315 317 319 320 322 322 323 323 323 322 322 322 323 323 324 325 326 327 328 329 329 330 331 331 332 333 334 335 337 338 339 341 342 343 344 344 343 343 342 341 340 340 339 338 337 334 331 326 320 314 311 308 307 305 303 302 300 299 299 300 300 301 301 300 299 298 296 294 292 288 283 278 272 267 262 257 254 250 247 243
301 304 307 309 312 314 316 318 320 322 323 323 324 324 324 323 323 323 324 324 325 326 326 327 328 329 330 330 331 331 332 332 333 334 335 336 337 338 339 341 341 342 342 342 341 341 340 340 339 339 338 337 335 331 326 321 317 314 313 311 309 307 305 304 304 306 307 309 309 309 309 307 305 301 295 288 281 274 268 263 259 255 251 246 242 237
303 306 308 311 313 316 318 320 322 323 324 324 325 325 325 324 324 324 324 325 325 326 326 327 328 329 330 331 331 331 331 331 332 333 334 335 336 337 338 339 339 340 340 341 341 341 341 340 340 340 340 339 337 335 332 327 323 319 317 315 314 312 310 309 309 311 313 315 317 319 319 317 313 307 299 290 280 272 265 260 255 251 246 241 235 229
305 308 310 313 315 317 320 322 323 324 325 326 326 326 326 325 325 325 325 325 325 326 326 327 328 329 330 331 331 331 331 331 331 332 333 334 335 336 337 338 338 339 339 340 340 340 341 341 341 340 340 339 338 338 336 332 327 323 320 319 316 313 309 308 310 313 316 318 320 322 323 321 317 310 300 290 280 271 263 257 252 246 240 233 227 222
307 309 312 314 317 319 321 323 324 326 327 327 328 328 327 327 326 326 326 325 326 326 326 327 328 329 330 330 330 330 330 330 331 331 333 334 335 336 336 337 338 338 338 339 339 339 340 340 341 341 341 340 339 339 338 335 331 327 323 321 318 315 311 310 312 314 316 318 320 322 322 321 317 309 299 289 279 269 261 254 246 240 232 225 219 216
309 311 314 316 319 321 323 325 326 327 328 329 329 329 329 328 327 326 326 326 326 326 326 327 327 328 329 329 329 330 331 331 332 332 333 334 335 335 336 337 337 337 337 338 338 338 339 339 340 340 341 341 340 340 339 337 334 331 327 323 321 319 318 319 318 318 318 318 319 320 320 319 315 307 298 287 277 267 258 249 241 234 228 222 218 216
311 313 316 318 321 323 325 326 327 328 329 330 330 330 330 329 328 327 326 326 326 326 326 327 327 327 328 328 329 330 331 332 333 334 334 334 335 335 335 336 336 336 336 336 336 336 337 337 337 338 339 341 342 341 340 339 337 335 332 328 325 323 322 321 321 321 321 321 320 319 319 316 312 305 296 284 273 263 254 246 239 234 230 225 223 222
313 316 318 320 322 324 326 327 328 330 330 331 332 331 331 330 329 328 327 327 326 326 326 327 327 327 328 329 329 330 332 333 334 335 336 335 335 335 335 336 336 336 336 335 335 335 334 335 335 335 336 338 340 342 342 340 339 338 336 334 331 328 325 324 324 324 324 323 322 320 317 313 308 301 291 279 269 262 255 248 243 239 236 234 233 233
316 318 320 322 324 325 327 328 329 331 331 332 332 332 332 331 330 329 328 327 327 326 326 327 327 327 328 329 330 331 332 333 335 336 336 336 336 336 336 336 337 336 336 336 335 335 334 333 332 332 332 333 335 337 339 339 339 338 337 335 333 331 328 326 325 324 323 322 321 318 315 310 305 297 286 277 270 265 260 255 250 247 245 244 244 244
318 320 322 324 325 327 328 329 330 331 332 333 333 333 333 332 331 329 328 327 327 327 327 327 328 328 329 329 330 331 332 333 334 335 336 336 336 336 336 337 337 338 338 338 337 337 335 334 332 330 329 329 330 332 334 335 336 335 335 333 332 330 327 325 323 321 320 319 317 314 311 307 301 294 285 279 274 270 266 263 259 257 255 254 254 253
321 322 324 325 326 327 328 329 330 332 332 333 333 334 333 333 332 330 329 328 328 327 328 328 328 329 329 330 330 331 332 333 334 335 335 335 336 336 336 337 338 339 340 340 340 340 339 337 334 330 328 327 327 328 329 330 331 331 331 330 328 326 324 321 319 317 315 314 312 310 308 305 300 295 289 284 279 275 273 270 268 266 264 263 261 260
323 324 325 326 327 328 329 330 331 332 332 333 334 334 334 333 332 331 330 329 328 328 329 329 329 330 330 330 331 331 332 333 334 335 335 335 336 336 337 337 338 339 341 342 342 342 341 340 337 332 328 326 325 326 326 326 327 327 327 326 324 321 318 316 313 311 309 308 307 306 305 303 301 298 294 289 285 281 278 276 275 273 271 269 267 264